Fuerteventura, El Salvador

07:19 AM WEST am 01. Mai 2017 (GMT +0100)
Fuerteventura

Wetter Verlauf für GCFV - April, 2017

Change the Weather History Date:

Freitag, April 21, 2017

  Actual Average Record
Temperature  
mittlereTemperatur 70 °F -  
Max. Temperatur 79 °F 71 °F 86 °F (2013)
Min.Temperatur 62 °F 61 °F 55 °F (2001)
Cooling Degree Days 6    
Growing Degree Days 20 (Base 50)    
Moisture  
Taupunkt 56 °F    
Average Humidity 60    
Maximum Humidity 78    
Minimum Humidity 30    
Niederschlag  
Niederschlag 0.00 inch - - ()
Luftdruck in Meereshöhe  
Luftdruck in Meereshöhe 30.00 inch    
Wind  
Windgeschwindigkeit 8 mph ()    
Max. Windgeschwindigkeit 17 mph    
Max Gust Speed 18 mph    
Sichtweite 7.5 Meilen    
Ereignisse      
Averages and records for this station are not official NWS values.
T = Trace of Precipitation, MM = Missing Value Source: Averaged Metar Reports

Daily Weather History Graph

Daily Weather History Graph

Search for Another Location

Airport or City:

Trip Planner

Search our weather history database for the weather conditions in past years. The results will help you decide how hot, cold, wet, or windy it might be!

Date:

Astronomie

Apr. 21, 2017 Aufgang Untergang
Genaue Zeit 07:23 WEST 20:24 WEST
Bürgerliche Dämmerung 06:59 WEST 20:49 WEST
Nautische Dämmerung 06:30 WEST 21:18 WEST
Astronomische Dämmerung 06:01 WEST 21:47 WEST
Mond 04:01 WEST (4/21) 15:25 WEST (4/21)
Länge des sichtbaren Lichts 13h 49m
Tageslänge
13h 00m
Letztes Viertel, 30% of the Moon is Illuminated
Apr 21
Letztes Viertel
Apr 26
Neu
Mai 3
Erstes Viertel
Mai 10
Vollmond
Mai 19
Letztes Viertel

Hourly Weather History & Observations

Zeit (WEST) Temp. Taupunkt Feuchtigkeit Druck Sichtweite Wind Dir Windgeschwindigkeit Böengeschwindigkeit Precip Ereignisse Wetterzustand
12:00 AM 68.0 °F 57.2 °F 68% 29.98 inch 6.2 mi Nord-Nordwest 5.8 mph - N/A   Teils Wolkig
12:30 AM 68.0 °F 57.2 °F 68% 29.98 inch 6.2 mi Nord-Nordwest 6.9 mph - N/A   Teils Wolkig
1:00 AM 67 °F 57 °F 62% 30.00 inch 14 mi Nordwest 8.1 mph - -  
1:00 AM 68.0 °F 57.2 °F 68% 29.98 inch 6.2 mi Nord-Nordwest 8.1 mph - N/A   Unbekannt
1:30 AM 68.0 °F 57.2 °F 68% 29.98 inch 6.2 mi Nord-Nordwest 8.1 mph - N/A   Unbekannt
2:00 AM 66.2 °F 57.2 °F 73% 29.98 inch 6.2 mi Nord-Nordwest 4.6 mph - N/A   Teils Wolkig
2:30 AM 66.2 °F 57.2 °F 73% 29.98 inch 6.2 mi Nord 3.5 mph - N/A   Unbekannt
3:00 AM 66.2 °F 55.4 °F 68% 29.95 inch 6.2 mi Nord-Nordwest 4.6 mph - N/A   Unbekannt
3:30 AM 66.2 °F 57.2 °F 73% 29.95 inch 6.2 mi Nord 4.6 mph - N/A   Teils Wolkig
4:00 AM 65 °F 56 °F 64% 29.96 inch 17 mi Nord-Nordwest 5.8 mph - -  
4:00 AM 64.4 °F 55.4 °F 73% 29.95 inch 6.2 mi Nord 5.8 mph - N/A   Unbekannt
4:30 AM 64.4 °F 55.4 °F 73% 29.95 inch 6.2 mi Nord-Nordwest 4.6 mph - N/A   Unbekannt
5:00 AM 64.4 °F 55.4 °F 73% 29.95 inch 6.2 mi Nord-Nordwest 3.5 mph - N/A   Unbekannt
5:30 AM 64.4 °F 55.4 °F 73% 29.95 inch 6.2 mi Nord-Nordwest 5.8 mph - N/A   Unbekannt
6:00 AM 64.4 °F 55.4 °F 73% 29.95 inch - Nordwest 4.6 mph - N/A   Heiter
6:30 AM 62.6 °F 55.4 °F 77% 29.95 inch - West-Nordwest 4.6 mph - N/A   Heiter
7:00 AM 63 °F 54 °F 66% 29.97 inch 16 mi Ruhig Ruhig - -   Teils Wolkig
7:00 AM 62.6 °F 55.4 °F 77% 29.98 inch 6.2 mi Ruhig Ruhig - N/A   Teils Wolkig
7:30 AM 64.4 °F 55.4 °F 73% 29.98 inch 6.2 mi West-Nordwest 4.6 mph - N/A   Teils Wolkig
8:00 AM 64.4 °F 57.2 °F 77% 29.98 inch 6.2 mi West-Nordwest 3.5 mph 18.4 mph N/A   Teils Wolkig
8:30 AM 64.4 °F 57.2 °F 77% 29.98 inch 6.2 mi West-Nordwest 4.6 mph - N/A   Teils Wolkig
9:00 AM 66.2 °F 59.0 °F 78% 30.01 inch 6.2 mi Wechselnd 2.3 mph - N/A   Teils Wolkig
9:30 AM 68.0 °F 59.0 °F 73% 30.01 inch 6.2 mi Wechselnd 2.3 mph - N/A   Teils Wolkig
10:00 AM 71 °F 55 °F 47% 30.02 inch 16 mi Nord 10.4 mph - -   Teils Wolkig
10:00 AM 71.6 °F 55.4 °F 57% 30.01 inch 6.2 mi Nord 9.2 mph - N/A   Teils Wolkig
10:30 AM 71.6 °F 55.4 °F 57% 30.01 inch 6.2 mi Nord-Nordwest 9.2 mph - N/A   Teils Wolkig
11:00 AM 71.6 °F 55.4 °F 57% 30.01 inch 6.2 mi Nord 10.4 mph - N/A   Teils Wolkig
11:30 AM 73.4 °F 55.4 °F 53% 30.01 inch 6.2 mi Nord-Nordwest 15.0 mph - N/A   Teils Wolkig
12:00 PM 75.2 °F 53.6 °F 47% 30.04 inch 6.2 mi Nord 15.0 mph - N/A   Teils Wolkig
12:30 PM 75.2 °F 51.8 °F 44% 30.01 inch 6.2 mi Nord-Nordost 13.8 mph - N/A   Teils Wolkig
1:00 PM 77 °F 52 °F 31% 30.02 inch 16 mi Nord 13.8 mph - -   Teils Wolkig
1:00 PM 75.2 °F 53.6 °F 47% 30.01 inch 6.2 mi Nord-Nordost 13.8 mph - N/A   Teils Wolkig
1:30 PM 75.2 °F 57.2 °F 53% 30.01 inch 6.2 mi Nordost 17.3 mph - N/A   Teils Wolkig
2:00 PM 75.2 °F 51.8 °F 44% 30.01 inch 6.2 mi Nord 13.8 mph - N/A   Teils Wolkig
2:30 PM 77.0 °F 53.6 °F 44% 30.01 inch 6.2 mi Nord 16.1 mph - N/A   Teils Wolkig
3:00 PM 77.0 °F 51.8 °F 41% 30.01 inch 6.2 mi Nord-Nordwest 16.1 mph - N/A   Teils Wolkig
3:30 PM 77.0 °F 51.8 °F 41% 29.98 inch 6.2 mi Nord-Nordost 12.7 mph - N/A   Teils Wolkig
4:00 PM 77 °F 51 °F 30% 30.00 inch 12 mi Nord-Nordost 15.0 mph - -   Teils Wolkig
4:00 PM 75.2 °F 53.6 °F 47% 29.98 inch 6.2 mi Nordost 16.1 mph - N/A   Teils Wolkig
4:30 PM 73.4 °F 59.0 °F 61% 29.98 inch 6.2 mi Nordost 17.3 mph - N/A   Teils Wolkig
5:00 PM 75.2 °F 53.6 °F 47% 30.01 inch 6.2 mi Nord 13.8 mph - N/A   Teils Wolkig
5:30 PM 75.2 °F 55.4 °F 50% 30.01 inch 6.2 mi Nord 13.8 mph - N/A   Teils Wolkig
6:00 PM 75.2 °F 53.6 °F 47% 30.01 inch 6.2 mi Nord-Nordwest 16.1 mph - N/A   Teils Wolkig
6:30 PM 75.2 °F 55.4 °F 50% 30.01 inch 6.2 mi Nord-Nordwest 16.1 mph - N/A   Teils Wolkig
7:00 PM 74 °F 53 °F 38% 30.02 inch 16 mi Nord-Nordwest 17.3 mph - -   Teils Wolkig
7:00 PM 73.4 °F 53.6 °F 50% 30.01 inch 6.2 mi Nord 16.1 mph - N/A   Teils Wolkig
7:30 PM 73.4 °F 53.6 °F 50% 30.01 inch 6.2 mi Nord 16.1 mph - N/A   Teils Wolkig
8:30 PM 69.8 °F 55.4 °F 60% 30.01 inch 6.2 mi Nord 13.8 mph - N/A   Teils Wolkig
9:00 PM 69.8 °F 55.4 °F 60% 30.04 inch 6.2 mi Nord 15.0 mph - N/A   Teils Wolkig
9:30 PM 68.0 °F 57.2 °F 68% 30.04 inch 6.2 mi Nord 13.8 mph - N/A   Teils Wolkig
10:00 PM 69 °F 58 °F 60% 30.06 inch 14 mi Nord 15.0 mph - -  
10:00 PM 68.0 °F 59.0 °F 73% 30.04 inch 6.2 mi Nord 13.8 mph - N/A   Teils Wolkig
10:30 PM 68.0 °F 59.0 °F 73% 30.06 inch 6.2 mi Nord 12.7 mph - N/A   Teils Wolkig
11:00 PM 68.0 °F 59.0 °F 73% 30.06 inch 6.2 mi Nord 13.8 mph - N/A   Teils Wolkig
11:30 PM 68.0 °F 57.2 °F 68% 30.06 inch 6.2 mi Nord 11.5 mph - N/A   Unbekannt